This is the latest recevied weather packets stored in our database for station/object KC8YYF. If no packets are shown the sender has not sent any weather packets the latest 10 day(s).
| Time | Temp. | Humidity | Pressure | Rain* | Wind** | Luminosity | Snow |
|---|---|---|---|---|---|---|---|
| 1777390935 | 16.67° C | 92% | 1014.4 hPa | 0 mm | - | 87 W/m² | - |
| 1777390631 | 16.67° C | 92% | 1014.5 hPa | 0 mm | - | 290 W/m² | - |
| 1777390328 | 16.11° C | 92% | 1014.5 hPa | 0 mm | - | 75 W/m² | - |
| 1777390024 | 15.56° C | 92% | 1014.5 hPa | 0 mm | - | 97 W/m² | - |
| 1777389721 | 15.56° C | 93% | 1014.5 hPa | 0 mm | - | 106 W/m² | - |
| 1777389417 | 15.56° C | 94% | 1014.3 hPa | 0 mm | - | 82 W/m² | - |
| 1777389115 | 15.56° C | 94% | 1014.6 hPa | 0 mm | - | 83 W/m² | - |
| 1777388812 | 15° C | 94% | 1014.6 hPa | 0 mm | - | 113 W/m² | - |
| 1777388510 | 15° C | 95% | 1014.3 hPa | 0 mm | - | 87 W/m² | - |
| 1777388204 | 15° C | 95% | 1014.3 hPa | 0 mm | - | 97 W/m² | - |
| 1777387900 | 14.44° C | 95% | 1014.5 hPa | 0 mm | - | 61 W/m² | - |
| 1777387597 | 14.44° C | 95% | 1014.6 hPa | 0 mm | - | 66 W/m² | - |
| 1777387293 | 13.89° C | 96% | 1014.3 hPa | 0 mm | - | 66 W/m² | - |
| 1777386987 | 13.89° C | 96% | 1014.3 hPa | 0 mm | - | 54 W/m² | - |
| 1777386685 | 13.89° C | 96% | 1014.2 hPa | 0 mm | - | 54 W/m² | - |
| 1777386382 | 13.89° C | 96% | 1014.4 hPa | 0 mm | - | 44 W/m² | - |
| 1777386079 | 13.89° C | 96% | 1014.3 hPa | 0 mm | - | 35 W/m² | - |
| 1777385775 | 13.89° C | 96% | 1014.3 hPa | 0 mm | - | 40 W/m² | - |
| 1777385473 | 13.33° C | 96% | 1014.1 hPa | 0 mm | - | 48 W/m² | - |
| 1777385169 | 13.33° C | 97% | 1014.2 hPa | 0 mm | - | 46 W/m² | - |
| 1777384865 | 13.33° C | 97% | 1014 hPa | 0 mm | - | 37 W/m² | - |
| 1777384563 | 13.33° C | 97% | 1014.1 hPa | 0 mm | - | 45 W/m² | - |
| 1777384257 | 13.33° C | 97% | 1014.1 hPa | 0 mm | - | 43 W/m² | - |
| 1777383953 | 12.78° C | 97% | 1013.9 hPa | 0 mm | - | 37 W/m² | - |
| 1777383649 | 12.78° C | 98% | 1013.9 hPa | 0 mm | - | 29 W/m² | - |
* Rain latest hour (hover to see other rain measurements)
** Current wind speed in m/s (hover to see current wind gust speed)